Location: Crescent
(42.8242°N, 73.7329°W)
Time: 08:48:21
(UTC+00:00)

Vanguard 1 Rocket - Pass Details

Date: 19 February 2026
Orbit: 653 x 4214 km, 34.3° (Epoch: 12 March)

Event Time Altitude Azimuth Distance (km) Brightness Sun altitude
Rises 22:25:39 0° 275° (W) 5,681 13.1 0.3°
Reaches altitude 10° 22:28:51 10° 270° (W) 5,059 12.9 -0.3°
Maximum altitude 22:44:19 51° 201° (SSW) 4,092 11.0 -3.1°
Drops below altitude 10° 23:08:08 10° 135° (SE) 7,410 11.7 -7.4°
Sets 23:14:13 0° 131° (SE) 8,380 11.9 -8.5°
